Battle Creek, MI

3:59 AM EDT on September 18, 2019 (GMT -0400)
Kellogg

Weather History for KBTL - July, 2019

Change the Weather History Date:

Tuesday, July 23, 2019

  Actual Average Record
Temperature  
Mean Temperature 67 °F 71 °F  
Max Temperature 79 °F 82 °F 97 °F (2012)
Min Temperature 55 °F 59 °F 53 °F (2000)
Degree Days  
Heating Degree Days 0 0  
Month to date heating degree days 0 6  
Since 1 June heating degree days 46 63  
Since 1 July heating degree days 0 6  
Cooling Degree Days 2 6  
Month to date cooling degree days 269 150  
Year to date cooling degree days 410 314  
Since 1 June cooling degree days 394 276  
Growing Degree Days 16 (Base 50)    
Moisture  
Dew Point 53 °F    
Average Humidity 67    
Maximum Humidity 93    
Minimum Humidity 40    
Precipitation  
Precipitation 0.00 in 0.11 in 2.84 in (2010)
Month to date precipitation 2.01 2.47  
Year to date precipitation 20.30 17.18  
Sea Level Pressure  
Sea Level Pressure 30.05 in    
Wind  
Wind Speed 7 mph (NW)    
Max Wind Speed 20 mph    
Max Gust Speed 26 mph    
Visibility 10 miles    
Events      
T = Trace of Precipitation, MM = Missing Value Source: NWS Daily Summary

Daily Weather History Graph

Daily Weather History Graph

Search for Another Location

Airport or City:

Astronomy

Jul. 23, 2019 Rise Set
Actual Time 6:24 AM EDT 9:09 PM EDT
Civil Twilight 5:51 AM EDT 9:42 PM EDT
Nautical Twilight 5:10 AM EDT 10:23 PM EDT
Astronomical Twilight 4:23 AM EDT 11:10 PM EDT
Moon 12:25 AM EDT (7/23) 12:44 PM EDT (7/23)
Length of Visible Light 15h 50m
Length of Day
14h 45m
Waning Gibbous, 63% of the Moon is Illuminated
Jul 23
Waning Gibbous
Jul 24
Last Quarter
Jul 31
New
Aug 7
First Quarter
Aug 15
Full

Hourly Weather History & Observations

Time (EDT) Temp. Dew Point Humidity Pressure Visibility Wind Dir Wind Speed Gust Speed Precip Events Conditions
12:53 AM 61.0 °F 51.1 °F 70% 30.06 in 10.0 mi NW 3.5 mph - N/A   Clear
1:53 AM 60.1 °F 52.0 °F 75% 30.06 in 10.0 mi NNW 4.6 mph - N/A   Clear
2:53 AM 57.9 °F 52.0 °F 81% 30.06 in 10.0 mi Calm Calm - N/A   Clear
3:53 AM 57.9 °F 52.0 °F 81% 30.05 in 10.0 mi Calm Calm - N/A   Clear
4:53 AM 55.9 °F 53.1 °F 90% 30.05 in 10.0 mi Calm Calm - N/A   Clear
5:53 AM 55.9 °F 52.0 °F 87% 30.06 in 10.0 mi Calm Calm - N/A   Clear
6:53 AM 55.9 °F 53.1 °F 90% 30.06 in 10.0 mi WNW 3.5 mph - N/A   Partly Cloudy
7:53 AM 60.1 °F 54.0 °F 80% 30.07 in 10.0 mi NW 3.5 mph - N/A   Clear
8:53 AM 64.0 °F 54.0 °F 70% 30.08 in 10.0 mi NNW 4.6 mph - N/A   Clear
9:53 AM 69.1 °F 53.1 °F 57% 30.08 in 10.0 mi North 5.8 mph - N/A   Clear
10:53 AM 73.0 °F 50.0 °F 44% 30.08 in 10.0 mi NW 6.9 mph - N/A   Clear
11:53 AM 75.0 °F 50.0 °F 41% 30.07 in 10.0 mi North 5.8 mph - N/A   Clear
12:53 PM 75.9 °F 51.1 °F 42% 30.06 in 10.0 mi NNW 10.4 mph - N/A   Clear
1:53 PM 77.0 °F 51.1 °F 40% 30.05 in 10.0 mi WNW 6.9 mph - N/A   Partly Cloudy
2:53 PM 75.9 °F 53.1 °F 45% 30.04 in 10.0 mi WNW 10.4 mph - N/A   Scattered Clouds
3:53 PM 77.0 °F 52.0 °F 42% 30.03 in 10.0 mi WNW 12.7 mph 21.9 mph N/A   Scattered Clouds
4:53 PM 78.1 °F 54.0 °F 43% 30.04 in 10.0 mi West 16.1 mph 23.0 mph N/A   Scattered Clouds
5:53 PM 75.0 °F 57.0 °F 53% 30.03 in 10.0 mi West 12.7 mph - N/A   Partly Cloudy
6:53 PM 73.9 °F 55.9 °F 53% 30.03 in 10.0 mi West 15.0 mph 23.0 mph N/A   Clear
7:53 PM 71.1 °F 50.0 °F 47% 30.02 in 10.0 mi WNW 10.4 mph - N/A   Clear
8:53 PM 68.0 °F 54.0 °F 61% 30.04 in 10.0 mi NW 5.8 mph - N/A   Clear
9:53 PM 66.9 °F 54.0 °F 63% 30.05 in 10.0 mi NNW 5.8 mph - N/A   Mostly Cloudy
10:53 PM 64.0 °F 55.9 °F 75% 30.06 in 10.0 mi North 6.9 mph - N/A   Clear
11:53 PM 64.0 °F 55.9 °F 75% 30.08 in 10.0 mi NNW 4.6 mph - N/A   Partly Cloudy